Weather History for Milwaukee Timmerman, WI

Change the Weather History Date:

Sunday, December 9, 2012

  Actual Average Record
Temperature  
Mean Temperature 34 °F -  
Max Temperature 35 °F 34 °F 56 °F (1952)
Min Temperature 33 °F 20 °F -10 °F (1958)
Degree Days  
Heating Degree Days 31    
Moisture  
Dew Point 32 °F    
Average Humidity 88    
Maximum Humidity 100    
Minimum Humidity 75    
Precipitation  
Precipitation 0.02 in - - ()
Sea Level Pressure  
Sea Level Pressure 29.90 in    
Wind  
Wind Speed 8 mph (East)    
Max Wind Speed 14 mph    
Max Gust Speed 20 mph    
Visibility 6 miles    
Events Rain , Snow    
Averages and records for this station are not official NWS values.
T = Trace of Precipitation, MM = Missing Value Source: NWS Daily Summary

Daily Weather History Graph

Daily Weather History Graph

Search for Another Location

Airport:

Trip Planner

Search our weather history database for the weather conditions in past years. The results will help you decide how hot, cold, wet, or windy it might be!

Date:

Astronomy

Dec. 09, 2012 Rise Set
Actual Time 7:12 AM CST 4:16 PM CST
Civil Twilight 6:40 AM CST 4:49 PM CST
Nautical Twilight 6:04 AM CST 5:25 PM CST
Astronomical Twilight 5:29 AM CST 5:59 PM CST
Moon 2:40 AM CST (12/9) 1:27 PM CST (12/9)
Length of Visible Light 10h 09m
Length of Day
9h 04m
Waning Crescent, 18% of the Moon is Illuminated
Dec 9
Waning Crescent
Dec 13
New
Dec 19
First Quarter
Dec 28
Full
Jan 4
Last Quarter

Hourly Weather History & Observations

Time (CST) Temp. Windchill Dew Point Humidity Pressure Visibility Wind Dir Wind Speed Gust Speed Precip Events Conditions
12:15 AM 35.6 °F 29.9 °F 28.4 °F 75% 30.11 in 10.0 mi ESE 6.9 mph - N/A   Overcast
12:35 AM 35.6 °F 30.7 °F 28.4 °F 75% 30.11 in 10.0 mi ESE 5.8 mph - N/A   Overcast
12:55 AM 35.6 °F 29.2 °F 28.4 °F 75% 30.11 in 10.0 mi ESE 8.1 mph - N/A   Mostly Cloudy
1:15 AM 35.6 °F 28.0 °F 28.4 °F 75% 30.11 in 10.0 mi ESE 10.4 mph 17.3 mph N/A   Scattered Clouds
1:35 AM 35.6 °F 28.6 °F 28.4 °F 75% 30.10 in 10.0 mi East 9.2 mph 16.1 mph N/A   Mostly Cloudy
1:55 AM 35.6 °F 28.0 °F 28.4 °F 75% 30.10 in 10.0 mi East 10.4 mph 17.3 mph N/A   Overcast
2:15 AM 35.6 °F 27.5 °F 28.4 °F 75% 30.10 in 10.0 mi East 11.5 mph 17.3 mph N/A   Overcast
2:35 AM 35.6 °F 26.6 °F 28.4 °F 75% 30.11 in 10.0 mi ESE 13.8 mph 18.4 mph N/A   Overcast
2:55 AM 35.6 °F 29.2 °F 28.4 °F 75% 30.11 in 10.0 mi East 8.1 mph 16.1 mph N/A   Overcast
3:15 AM 35.6 °F 28.0 °F 28.4 °F 75% 30.10 in 10.0 mi ESE 10.4 mph 18.4 mph N/A   Overcast
3:35 AM 35.6 °F 27.5 °F 28.4 °F 75% 30.09 in 10.0 mi East 11.5 mph 19.6 mph N/A   Overcast
3:55 AM 35.6 °F 28.0 °F 28.4 °F 75% 30.09 in 10.0 mi East 10.4 mph 18.4 mph N/A   Overcast
4:15 AM 35.6 °F 27.1 °F 28.4 °F 75% 30.06 in 10.0 mi East 12.7 mph 18.4 mph N/A   Overcast
4:35 AM 35.6 °F 27.1 °F 28.4 °F 75% 30.06 in 10.0 mi East 12.7 mph 17.3 mph N/A   Overcast
4:55 AM 35.6 °F 27.1 °F 30.2 °F 81% 30.05 in 10.0 mi East 12.7 mph 17.3 mph N/A   Overcast
5:15 AM 35.6 °F 27.5 °F 30.2 °F 81% 30.05 in 10.0 mi East 11.5 mph 18.4 mph N/A   Overcast
5:35 AM 35.6 °F 27.5 °F 30.2 °F 81% 30.04 in 10.0 mi East 11.5 mph 17.3 mph N/A   Overcast
5:55 AM 35.6 °F 28.0 °F 32.0 °F 87% 30.03 in 10.0 mi East 10.4 mph 19.6 mph N/A   Overcast
6:50 AM 35.6 °F 29.9 °F 33.8 °F 93% 30.03 in 10.0 mi ESE 6.9 mph - N/A Rain Light Rain
7:50 AM 35.6 °F 30.7 °F 33.8 °F 93% 30.02 in 5.0 mi East 5.8 mph - N/A Rain Light Rain
8:50 AM 35.6 °F 29.2 °F 33.8 °F 93% 30.01 in 4.0 mi East 8.1 mph - N/A Rain Light Rain
9:50 AM 35.6 °F 29.9 °F 33.8 °F 93% 29.98 in 5.0 mi East 6.9 mph 11.5 mph N/A Rain Light Rain
10:45 AM 35.6 °F 27.5 °F 33.8 °F 93% 29.95 in 4.0 mi East 11.5 mph - N/A Rain Light Rain
11:45 AM 33.8 °F 26.4 °F 32.0 °F 93% 29.90 in 2.0 mi East 9.2 mph 18.4 mph N/A Rain , Snow Light Rain
12:50 PM 33.8 °F 27.0 °F 32.0 °F 93% 29.85 in 2.0 mi East 8.1 mph - N/A Snow Light Drizzle
1:50 PM 33.8 °F 27.0 °F 32.0 °F 93% 29.82 in 1.0 mi ENE 8.1 mph - N/A Snow Light Snow
2:50 PM 33.8 °F 27.7 °F 32.0 °F 93% 29.81 in 2.5 mi ENE 6.9 mph - N/A   Overcast
3:45 PM 33.8 °F 25.3 °F 33.8 °F 100% 29.80 in 2.0 mi East 11.5 mph - N/A   Drizzle
4:45 PM 33.8 °F 28.6 °F 33.8 °F 100% 29.77 in 4.0 mi East 5.8 mph - N/A   Drizzle
5:45 PM 35.6 °F 30.7 °F 33.8 °F 93% 29.75 in 3.0 mi East 5.8 mph - N/A   Drizzle
6:45 PM 35.6 °F 31.7 °F 33.8 °F 93% 29.73 in 2.5 mi East 4.6 mph - N/A   Drizzle
7:45 PM 35.6 °F - 35.6 °F 100% 29.73 in 3.0 mi Calm Calm - N/A   Overcast
8:15 PM 35.6 °F 32.8 °F 33.8 °F 93% 29.71 in 1.8 mi North 3.5 mph - 0.01 in   Heavy Drizzle
8:35 PM 35.6 °F - 33.8 °F 93% 29.71 in 2.0 mi Calm Calm - 0.01 in   Drizzle
8:45 PM 35.6 °F - 35.6 °F 100% 29.71 in 2.0 mi Calm Calm - N/A   Drizzle
8:55 PM 35.6 °F - 33.8 °F 93% 29.69 in 2.5 mi Calm Calm - 0.01 in Rain Light Rain
9:15 PM 35.6 °F - 33.8 °F 93% 29.68 in 3.0 mi Calm Calm - N/A   Overcast
9:35 PM 35.6 °F - 35.6 °F 100% 29.68 in 4.0 mi Calm Calm - N/A   Overcast
9:55 PM 35.6 °F - 33.8 °F 93% 29.68 in 7.0 mi Calm Calm - N/A   Overcast
10:15 PM 35.6 °F - 33.8 °F 93% 29.67 in 2.5 mi Calm Calm - N/A   Overcast
10:35 PM 35.6 °F 31.7 °F 33.8 °F 93% 29.67 in 2.5 mi WNW 4.6 mph - N/A   Overcast
10:55 PM 35.6 °F 31.7 °F 33.8 °F 93% 29.67 in 2.5 mi West 4.6 mph - N/A   Overcast
11:15 PM 35.6 °F 32.8 °F 33.8 °F 93% 29.68 in 2.0 mi West 3.5 mph - N/A   Overcast
11:35 PM 33.8 °F 29.6 °F 33.8 °F 100% 29.68 in 1.5 mi West 4.6 mph - 0.01 in Rain Rain
11:55 PM 33.8 °F 29.6 °F 33.8 °F 100% 29.67 in 2.0 mi West 4.6 mph - 0.01 in Rain Light Rain